Location: Branche des Alpilles
(43.6087°N, 4.6976°E)
Time: 13:13:15
(UTC+00:00)

Cosmos 44 Rocket - Pass Details

Date: 30 November 2020
Orbit: 638 x 751 km, 65.1° (Epoch: 25 January)

Event Time Altitude Azimuth Distance (km) Brightness Sun altitude
Rises 18:35:39 0° 326° (NW) 3,173 7.1 -26.5°
Reaches altitude 10° 18:38:01 10° 327° (NNW) 2,258 6.2 -26.9°
Enters shadow 18:42:12 59° 336° (NNW) 867 3.7 -27.6°
